Pos.Doss.NomPrenomTempsVit.Moy.Allure Pos. catégCatégorie Points Club
1 1076 Marx Hugo 00:14:11 15.23 00:03:56 1Garcons 12 à 15 ans 1000
2 235 Kalin Lionel 00:14:28 14.93 00:04:01 2Garcons 12 à 15 ans 909 HF
3 73 Fadda Alexis 00:14:57 14.45 00:04:09 3Garcons 12 à 15 ans 818 WACO MJ SPORT
4 300 Vaneetveld Brieu 00:15:29 13.95 00:04:18 4Garcons 12 à 15 ans 727 WACO
5 1075 Desaintes Py 00:15:48 13.67 00:04:23 1Débutant H .......
6 1066 Huerga Samuel 00:15:55 13.57 00:04:25 2Débutant H .......
7 394 Hamiot Florian 00:16:02 13.47 00:04:27 5Garcons 12 à 15 ans 636 HERVE ATHLE
8 1071 Nizet Karim 00:16:08 13.39 00:04:29 3Débutant H .......
9 1036 Dangriaux Guy 00:16:25 13.16 00:04:34 4Débutant H .......
10 201 Piedboeuf Maxime 00:16:28 13.12 00:04:34 6Garcons 12 à 15 ans 545 CSM
11 1034 Dicario Benjamin 00:16:55 12.77 00:04:42 7Garcons 12 à 15 ans 455
12 1084 Franssen Quentin 00:16:56 12.76 00:04:42 5Débutant H .......
13 1049 Marischal Rodrigue 00:17:00 12.71 00:04:43 8Garcons 12 à 15 ans 364
14 1048 Legrand Marie 00:18:33 11.64 00:05:09 1Débutante F .......
15 324 Cresson Thomas 00:18:55 11.42 00:05:15 9Garcons 12 à 15 ans 273 Herve
16 1073 Lambion Alexandre 00:19:19 11.18 00:05:22 6Débutant H .......
17 1046 Hannequart Clement 00:19:38 11 00:05:27 7Débutant H .......
18 332 Marino Damien 00:19:39 10.99 00:05:28 10Garcons 12 à 15 ans 182
19 1068 Bosny Simon 00:19:54 10.85 00:05:32 8Débutant H .......
20 1060 Pineur Esteban 00:20:10 10.71 00:05:36 9Débutant H ....... gerland
21 1054 Pregaldien Maxime 00:20:50 10.37 00:05:47 11Garcons 12 à 15 ans 91
22 1086 Rousseau Valerie 00:22:17 9.69 00:06:11 2Débutante F .......
23 1083 Lefebvre Vanina 00:22:38 9.54 00:06:17 ? ....... rfcl
24 1072 Desonnay Laurence 00:25:10 8.58 00:06:59 3Débutante F .......
25 1035 Gill Angelina 00:25:40 8.42 00:07:08 4Débutante F ....... gonzy fan club
26 1031 Collard Aline 00:25:40 8.42 00:07:08 5Débutante F ....... gonzy fan club
27 1030 Milis Gonzague 00:25:46 8.38 00:07:09 10Débutant H ....... gonzy fan club
28 1070 Laboureur Laurent 00:26:20 8.2 00:07:19 11Débutant H ....... don bosco
29 1058 Ryhon Pierre 00:26:53 8.03 00:07:28 12Débutant H ....... gerland
30 1085 Boulanger Steven 00:27:31 7.85 00:07:39 13Débutant H .......
31 1081 Natalis Michel 00:28:35 7.56 00:07:56 14Débutant H .......
32 1077 Salamun Michele 00:28:44 7.52 00:07:59 6Débutante F .......
33 1074 Halleux Sean 00:28:51 7.49 00:08:01 15Débutant H .......
34 1065 Malemprez Alain 00:29:29 7.33 00:08:11 16Débutant H .......
35 1063 Meykens Michel 00:29:29 7.33 00:08:11 17Débutant H .......
36 1056 Pregaldien Olivier 00:29:56 7.22 00:08:19 18Débutant H .......
37 1021 Vandeweyer Arthur 00:30:40 7.04 00:08:31 19Débutant H ....... 6TQO
38 1080 Salamun Irene 00:31:36 6.84 00:08:47 7Débutante F .......
Jogging de Don Bosco 2017
Distance : 3.6 kms
38 coureurs